QPF
0.08 0.08 0.08 0.09 0.07 0.04 0.05 0.06 0.05 0.05 0.05 0.04 0.04 0.03 0.03 0.04 0.04 0.04 0.04 0.03 0.03 0.03 0.04 0.05 0.05 0.07 0.07 0.12 0.18 0.18 0.15 0.10 0.08 0.10 0.08 0.08 0.09 0.07 0.07 0.09 0.09 0.08 0.08
0.09 0.09 0.08 0.10 0.10 0.06 0.06 0.05 0.04 0.04 0.04 0.03 0.03 0.02 0.03 0.03 0.04 0.04 0.04 0.04 0.03 0.03 0.04 0.05 0.05 0.06 0.07 0.08 0.15 0.13 0.10 0.07 0.06 0.07 0.07 0.10 0.11 0.12 0.11 0.13 0.13 0.10 0.10
0.08 0.08 0.07 0.08 0.08 0.07 0.05 0.04 0.03 0.03 0.03 0.03 0.04 0.03 0.02 0.02 0.03 0.03 0.03 0.04 0.04 0.04 0.04 0.05 0.06 0.07 0.07 0.08 0.11 0.12 0.09 0.07 0.06 0.06 0.06 0.05 0.07 0.10 0.11 0.12 0.12 0.10 0.08
0.05 0.07 0.07 0.06 0.06 0.04 0.02 0.03 0.03 0.03 0.03 0.03 0.03 0.03 0.03 0.03 0.03 0.02 0.03 0.03 0.03 0.03 0.04 0.04 0.04 0.07 0.09 0.10 0.11 0.10 0.08 0.06 0.06 0.05 0.05 0.06 0.05 0.06 0.06 0.08 0.08 0.08 0.07
0.03 0.04 0.05 0.05 0.04 0.02 0.02 0.02 0.02 0.03 0.04 0.03 0.02 0.04 0.03 0.04 0.04 0.03 0.04 0.03 0.04 0.05 0.05 0.04 0.04 0.06 0.07 0.09 0.10 0.10 0.09 0.07 0.05 0.04 0.04 0.04 0.04 0.03 0.03 0.03 0.03 0.03 0.05
0.02 0.04 0.05 0.06 0.03 0.03 0.03 0.03 0.03 0.04 0.03 0.03 0.02 0.02 0.02 0.03 0.04 0.04 0.03 0.03 0.03 0.04 0.06 0.06 0.07 0.06 0.04 0.04 0.07 0.11 0.10 0.06 0.03 0.03 0.03 0.03 0.03 0.04 0.03 0.02 0.02 0.02 0.02
0.03 0.05 0.04 0.06 0.04 0.04 0.05 0.04 0.03 0.04 0.03 0.02 0.03 0.04 0.03 0.02 0.03 0.03 0.02 0.03 0.02 0.02 0.04 0.05 0.06 0.07 0.05 0.04 0.05 0.07 0.09 0.08 0.05 0.04 0.04 0.04 0.04 0.04 0.04 0.02 0.02 0.02 0.01
0.03 0.05 0.06 0.05 0.04 0.06 0.06 0.05 0.05 0.05 0.03 0.03 0.04 0.05 0.04 0.04 0.03 0.02 0.02 0.02 0.02 0.02 0.02 0.03 0.04 0.06 0.06 0.05 0.05 0.05 0.05 0.07 0.07 0.07 0.06 0.06 0.05 0.04 0.05 0.04 0.03 0.03 0.02
0.03 0.04 0.05 0.07 0.05 0.04 0.04 0.05 0.06 0.07 0.06 0.03 0.03 0.04 0.05 0.05 0.05 0.04 0.03 0.03 0.03 0.03 0.03 0.02 0.03 0.04 0.06 0.07 0.06 0.04 0.03 0.03 0.04 0.04 0.06 0.07 0.07 0.05 0.05 0.04 0.04 0.04 0.02
0.02 0.03 0.05 0.08 0.06 0.03 0.04 0.04 0.04 0.07 0.06 0.04 0.04 0.04 0.03 0.04 0.05 0.05 0.05 0.04 0.03 0.02 0.02 0.02 0.02 0.03 0.03 0.05 0.05 0.04 0.02 0.02 0.02 0.02 0.03 0.05 0.06 0.06 0.07 0.07 0.06 0.05 0.04
0.02 0.02 0.03 0.05 0.06 0.04 0.04 0.04 0.03 0.04 0.05 0.04 0.04 0.04 0.03 0.03 0.03 0.04 0.04 0.04 0.03 0.03 0.01 0.01 0.02 0.02 0.02 0.03 0.03 0.03 0.02 0.02 0.02 0.02 0.02 0.03 0.03 0.03 0.04 0.06 0.06 0.05 0.04
0.04 0.02 0.03 0.04 0.05 0.04 0.03 0.03 0.03 0.03 0.04 0.04 0.04 0.03 0.04 0.04 0.04 0.05 0.04 0.04 0.03 0.03 0.01 0.01 0.01 0.02 0.02 0.01 0.01 0.01 0.01 0.01 0.01 0.01 0.02 0.02 0.02 0.03 0.04 0.05 0.05 0.06 0.05
0.05 0.04 0.03 0.04 0.06 0.06 0.03 0.03 0.03 0.03 0.04 0.04 0.03 0.03 0.04 0.04 0.04 0.04 0.05 0.04 0.04 0.03 0.02 0.01 0.01 0.02 0.02 0.02 0.01 0.01 0.01 0.01 0.01 0.01 0.01 0.02 0.02 0.02 0.03 0.03 0.04 0.05 0.07
0.02 0.02 0.03 0.04 0.06 0.06 0.05 0.05 0.04 0.03 0.03 0.03 0.02 0.03 0.04 0.04 0.03 0.03 0.03 0.03 0.04 0.04 0.03 0.02 0.01 0.02 0.02 0.02 0.02 0.01 0.01 0.01 0.01 0.01 0.02 0.03 0.03 0.03 0.02 0.02 0.02 0.03 0.04
0.02 0.01 0.02 0.03 0.04 0.05 0.06 0.06 0.06 0.04 0.03 0.03 0.03 0.04 0.03 0.03 0.03 0.03 0.03 0.03 0.05 0.05 0.03 0.03 0.03 0.03 0.03 0.03 0.02 0.02 0.02 0.01 0.01 0.02 0.02 0.02 0.03 0.03 0.03 0.02 0.02 0.03 0.05
0.02 0.02 0.02 0.02 0.01 0.02 0.03 0.04 0.04 0.04 0.03 0.03 0.03 0.04 0.04 0.04 0.05 0.04 0.03 0.04 0.05 0.06 0.05 0.03 0.04 0.03 0.03 0.02 0.02 0.01 0.01 0.00 0.01 0.01 0.01 0.02 0.03 0.03 0.04 0.04 0.03 0.03 0.05
0.01 0.01 0.02 0.02 0.02 0.03 0.04 0.04 0.04 0.04 0.03 0.03 0.03 0.03 0.04 0.05 0.06 0.04 0.03 0.04 0.04 0.04 0.05 0.04 0.03 0.02 0.02 0.02 0.02 0.01 0.00 0.00 0.00 0.01 0.01 0.01 0.02 0.02 0.03 0.04 0.03 0.03 0.03
0.02 0.02 0.02 0.02 0.03 0.05 0.05 0.05 0.04 0.04 0.04 0.03 0.03 0.03 0.03 0.04 0.05 0.04 0.03 0.03 0.04 0.03 0.04 0.04 0.03 0.03 0.02 0.02 0.01 0.02 0.01 0.01 0.01 0.02 0.02 0.02 0.01 0.01 0.02 0.02 0.02 0.01 0.02
0.03 0.02 0.02 0.02 0.04 0.04 0.04 0.05 0.05 0.05 0.04 0.04 0.04 0.04 0.03 0.04 0.04 0.05 0.05 0.04 0.04 0.02 0.02 0.03 0.03 0.03 0.03 0.02 0.02 0.02 0.01 0.02 0.02 0.02 0.02 0.02 0.01 0.01 0.01 0.01 0.01 0.01 0.01
0.03 0.02 0.01 0.01 0.03 0.05 0.05 0.04 0.05 0.05 0.05 0.05 0.04 0.04 0.04 0.04 0.05 0.05 0.05 0.05 0.05 0.04 0.04 0.03 0.03 0.03 0.03 0.03 0.04 0.04 0.03 0.03 0.02 0.02 0.01 0.01 0.01 0.01 0.01 0.01 0.01 0.01 0.01
0.02 0.02 0.02 0.02 0.03 0.05 0.06 0.05 0.05 0.06 0.06 0.06 0.05 0.04 0.04 0.03 0.03 0.03 0.03 0.05 0.06 0.05 0.04 0.03 0.03 0.03 0.03 0.04 0.04 0.04 0.03 0.03 0.02 0.01 0.02 0.02 0.03 0.02 0.02 0.02 0.02 0.02 0.01
0.03 0.02 0.03 0.03 0.04 0.04 0.05 0.05 0.05 0.06 0.06 0.06 0.06 0.06 0.05 0.04 0.02 0.02 0.02 0.03 0.03 0.04 0.04 0.03 0.03 0.02 0.02 0.03 0.03 0.03 0.03 0.03 0.03 0.02 0.02 0.03 0.04 0.04 0.04 0.04 0.04 0.04 0.04
0.04 0.03 0.03 0.03 0.05 0.05 0.05 0.04 0.04 0.04 0.05 0.05 0.04 0.04 0.04 0.03 0.02 0.02 0.02 0.02 0.02 0.02 0.02 0.03 0.02 0.02 0.03 0.04 0.04 0.05 0.05 0.06 0.06 0.06 0.06 0.06 0.07 0.07 0.06 0.05 0.05 0.05 0.05
0.05 0.05 0.05 0.04 0.03 0.03 0.04 0.05 0.06 0.05 0.04 0.03 0.03 0.02 0.02 0.02 0.02 0.02 0.02 0.02 0.02 0.02 0.03 0.02 0.02 0.02 0.02 0.05 0.04 0.04 0.05 0.05 0.05 0.05 0.05 0.04 0.05 0.05 0.05 0.05 0.05 0.05 0.04
0.02 0.03 0.03 0.03 0.03 0.03 0.04 0.05 0.07 0.06 0.05 0.03 0.02 0.02 0.01 0.01 0.02 0.03 0.03 0.03 0.03 0.03 0.03 0.02 0.02 0.02 0.02 0.03 0.04 0.03 0.02 0.03 0.03 0.03 0.03 0.03 0.02 0.03 0.03 0.04 0.04 0.03 0.02
0.02 0.02 0.02 0.02 0.03 0.03 0.04 0.05 0.07 0.05 0.04 0.03 0.02 0.01 0.01 0.01 0.02 0.03 0.02 0.02 0.02 0.03 0.02 0.02 0.03 0.02 0.02 0.02 0.02 0.02 0.03 0.04 0.04 0.03 0.03 0.02 0.02 0.03 0.03 0.03 0.03 0.02 0.02
MSLP
1002.93 1002.27 1001.69 1001.20 1000.75 1000.26 999.68 998.94 998.05 997.05 996.05 995.19 994.62 994.45 994.76 995.52 996.66 998.03 999.47 1000.81 1001.96 1002.86 1003.53 1004.06 1004.53 1005.04 1005.66 1006.38 1007.17 1007.96 1008.66 1009.21 1009.56 1009.73 1009.77 1009.76 1009.76 1009.85 1010.06 1010.39 1010.81 1011.28 1011.77
1003.50 1002.82 1002.22 1001.73 1001.33 1000.97 1000.62 1000.22 999.75 999.24 998.74 998.33 998.09 998.11 998.40 998.96 999.73 1000.63 1001.54 1002.37 1003.08 1003.64 1004.09 1004.50 1004.95 1005.49 1006.14 1006.90 1007.69 1008.46 1009.12 1009.61 1009.91 1010.03 1010.05 1010.01 1010.01 1010.09 1010.28 1010.60 1011.00 1011.47 1011.95
1004.11 1003.43 1002.83 1002.32 1001.93 1001.64 1001.42 1001.23 1001.05 1000.88 1000.73 1000.64 1000.65 1000.79 1001.07 1001.48 1001.99 1002.53 1003.05 1003.52 1003.91 1004.24 1004.55 1004.90 1005.35 1005.91 1006.59 1007.36 1008.14 1008.87 1009.48 1009.92 1010.18 1010.28 1010.28 1010.26 1010.26 1010.35 1010.54 1010.84 1011.23 1011.67 1012.13
1004.70 1004.06 1003.47 1002.96 1002.56 1002.27 1002.09 1001.99 1001.95 1001.96 1002.01 1002.11 1002.27 1002.49 1002.77 1003.09 1003.42 1003.75 1004.04 1004.29 1004.51 1004.72 1004.97 1005.30 1005.74 1006.32 1007.00 1007.75 1008.49 1009.16 1009.72 1010.11 1010.34 1010.45 1010.47 1010.47 1010.50 1010.60 1010.80 1011.09 1011.45 1011.86 1012.29
1005.25 1004.67 1004.11 1003.61 1003.20 1002.90 1002.69 1002.59 1002.57 1002.63 1002.75 1002.93 1003.15 1003.41 1003.69 1003.97 1004.23 1004.47 1004.67 1004.83 1004.99 1005.16 1005.40 1005.73 1006.17 1006.73 1007.37 1008.05 1008.72 1009.32 1009.81 1010.17 1010.39 1010.52 1010.58 1010.63 1010.71 1010.85 1011.06 1011.34 1011.67 1012.03 1012.42
1005.73 1005.24 1004.75 1004.29 1003.88 1003.55 1003.30 1003.14 1003.07 1003.08 1003.18 1003.35 1003.58 1003.84 1004.13 1004.41 1004.68 1004.91 1005.11 1005.29 1005.46 1005.65 1005.90 1006.23 1006.64 1007.15 1007.70 1008.29 1008.85 1009.36 1009.78 1010.10 1010.34 1010.50 1010.63 1010.75 1010.89 1011.07 1011.29 1011.56 1011.86 1012.18 1012.51
1006.16 1005.77 1005.37 1004.98 1004.60 1004.26 1003.97 1003.74 1003.59 1003.53 1003.55 1003.67 1003.86 1004.11 1004.39 1004.70 1005.00 1005.28 1005.54 1005.77 1005.99 1006.23 1006.49 1006.79 1007.15 1007.56 1008.00 1008.46 1008.90 1009.30 1009.66 1009.95 1010.20 1010.42 1010.61 1010.81 1011.02 1011.24 1011.48 1011.73 1011.99 1012.26 1012.54
1006.56 1006.27 1005.97 1005.67 1005.35 1005.03 1004.72 1004.44 1004.22 1004.08 1004.02 1004.06 1004.20 1004.42 1004.70 1005.03 1005.37 1005.71 1006.03 1006.33 1006.60 1006.86 1007.12 1007.38 1007.66 1007.96 1008.27 1008.58 1008.89 1009.20 1009.49 1009.76 1010.03 1010.30 1010.56 1010.82 1011.09 1011.34 1011.59 1011.83 1012.05 1012.28 1012.50
1006.94 1006.74 1006.54 1006.32 1006.08 1005.81 1005.52 1005.23 1004.97 1004.77 1004.64 1004.62 1004.69 1004.87 1005.14 1005.47 1005.84 1006.22 1006.58 1006.92 1007.22 1007.49 1007.72 1007.93 1008.12 1008.30 1008.49 1008.68 1008.87 1009.09 1009.33 1009.59 1009.87 1010.17 1010.48 1010.79 1011.09 1011.36 1011.61 1011.82 1012.01 1012.18 1012.36
1007.32 1007.17 1007.04 1006.90 1006.73 1006.53 1006.28 1006.02 1005.75 1005.52 1005.36 1005.29 1005.31 1005.45 1005.68 1005.99 1006.35 1006.73 1007.10 1007.45 1007.75 1008.00 1008.20 1008.36 1008.48 1008.57 1008.66 1008.76 1008.88 1009.03 1009.23 1009.47 1009.75 1010.07 1010.39 1010.72 1011.02 1011.29 1011.51 1011.69 1011.84 1011.97 1012.10
1007.69 1007.56 1007.47 1007.38 1007.27 1007.13 1006.94 1006.72 1006.48 1006.25 1006.07 1005.97 1005.96 1006.05 1006.23 1006.49 1006.80 1007.15 1007.49 1007.82 1008.10 1008.33 1008.50 1008.63 1008.71 1008.76 1008.80 1008.85 1008.93 1009.05 1009.22 1009.44 1009.71 1010.01 1010.32 1010.63 1010.91 1011.14 1011.32 1011.45 1011.55 1011.64 1011.74
1008.05 1007.91 1007.82 1007.75 1007.67 1007.58 1007.44 1007.26 1007.06 1006.86 1006.69 1006.57 1006.53 1006.57 1006.69 1006.88 1007.13 1007.41 1007.70 1007.97 1008.22 1008.43 1008.60 1008.72 1008.80 1008.86 1008.91 1008.96 1009.04 1009.15 1009.31 1009.51 1009.75 1010.02 1010.29 1010.54 1010.76 1010.94 1011.06 1011.15 1011.20 1011.25 1011.31
1008.41 1008.23 1008.11 1008.03 1007.96 1007.88 1007.78 1007.65 1007.49 1007.33 1007.17 1007.05 1006.98 1006.97 1007.03 1007.14 1007.30 1007.50 1007.72 1007.94 1008.15 1008.35 1008.52 1008.67 1008.79 1008.90 1009.00 1009.10 1009.21 1009.34 1009.50 1009.68 1009.88 1010.10 1010.30 1010.48 1010.63 1010.73 1010.80 1010.83 1010.84 1010.85 1010.88
1008.78 1008.55 1008.38 1008.27 1008.18 1008.11 1008.03 1007.93 1007.81 1007.68 1007.55 1007.44 1007.35 1007.30 1007.29 1007.32 1007.39 1007.50 1007.63 1007.79 1007.97 1008.16 1008.35 1008.55 1008.74 1008.92 1009.10 1009.26 1009.43 1009.59 1009.76 1009.92 1010.08 1010.23 1010.36 1010.47 1010.54 1010.58 1010.59 1010.57 1010.55 1010.53 1010.53
1009.18 1008.91 1008.70 1008.55 1008.44 1008.35 1008.28 1008.21 1008.13 1008.03 1007.93 1007.82 1007.72 1007.63 1007.56 1007.51 1007.50 1007.52 1007.57 1007.67 1007.81 1007.99 1008.20 1008.44 1008.69 1008.95 1009.20 1009.44 1009.67 1009.86 1010.03 1010.18 1010.30 1010.40 1010.47 1010.51 1010.52 1010.51 1010.47 1010.43 1010.39 1010.35 1010.34
1009.63 1009.34 1009.11 1008.93 1008.80 1008.71 1008.65 1008.60 1008.54 1008.48 1008.40 1008.31 1008.20 1008.08 1007.96 1007.84 1007.75 1007.68 1007.66 1007.69 1007.78 1007.93 1008.15 1008.41 1008.71 1009.02 1009.33 1009.63 1009.89 1010.11 1010.29 1010.42 1010.51 1010.57 1010.59 1010.59 1010.57 1010.53 1010.49 1010.44 1010.39 1010.36 1010.33
1010.14 1009.86 1009.63 1009.45 1009.33 1009.24 1009.19 1009.16 1009.13 1009.09 1009.04 1008.95 1008.84 1008.71 1008.55 1008.38 1008.22 1008.08 1007.98 1007.94 1007.97 1008.08 1008.27 1008.52 1008.82 1009.15 1009.48 1009.79 1010.07 1010.29 1010.47 1010.59 1010.66 1010.70 1010.70 1010.68 1010.66 1010.63 1010.60 1010.58 1010.55 1010.53 1010.52
1010.69 1010.46 1010.26 1010.10 1009.99 1009.93 1009.90 1009.89 1009.88 1009.86 1009.83 1009.75 1009.65 1009.50 1009.32 1009.11 1008.90 1008.70 1008.53 1008.42 1008.39 1008.43 1008.56 1008.76 1009.02 1009.32 1009.62 1009.91 1010.17 1010.38 1010.54 1010.65 1010.72 1010.75 1010.75 1010.75 1010.75 1010.75 1010.76 1010.78 1010.79 1010.81 1010.82
1011.25 1011.08 1010.93 1010.81 1010.74 1010.69 1010.68 1010.69 1010.70 1010.70 1010.67 1010.61 1010.51 1010.36 1010.17 1009.94 1009.70 1009.46 1009.24 1009.07 1008.97 1008.94 1008.99 1009.11 1009.29 1009.51 1009.75 1009.99 1010.20 1010.38 1010.51 1010.60 1010.66 1010.70 1010.72 1010.75 1010.78 1010.83 1010.89 1010.95 1011.03 1011.09 1011.14
1011.75 1011.64 1011.55 1011.48 1011.43 1011.42 1011.42 1011.44 1011.45 1011.45 1011.43 1011.38 1011.28 1011.14 1010.96 1010.74 1010.49 1010.23 1009.99 1009.78 1009.61 1009.51 1009.47 1009.50 1009.59 1009.71 1009.86 1010.02 1010.16 1010.28 1010.38 1010.45 1010.50 1010.54 1010.58 1010.63 1010.71 1010.80 1010.91 1011.03 1011.16 1011.28 1011.38
1012.14 1012.08 1012.03 1012.00 1011.98 1011.98 1011.98 1011.99 1011.99 1011.99 1011.96 1011.91 1011.83 1011.70 1011.54 1011.35 1011.12 1010.88 1010.64 1010.41 1010.21 1010.05 1009.95 1009.89 1009.87 1009.90 1009.95 1010.01 1010.07 1010.13 1010.18 1010.22 1010.26 1010.29 1010.35 1010.41 1010.51 1010.63 1010.77 1010.94 1011.11 1011.28 1011.43
1012.35 1012.33 1012.31 1012.29 1012.28 1012.27 1012.26 1012.25 1012.23 1012.20 1012.16 1012.11 1012.03 1011.94 1011.82 1011.67 1011.49 1011.29 1011.09 1010.87 1010.67 1010.49 1010.33 1010.20 1010.10 1010.04 1010.00 1009.97 1009.96 1009.96 1009.95 1009.96 1009.97 1009.99 1010.03 1010.10 1010.19 1010.32 1010.47 1010.66 1010.86 1011.06 1011.26
1012.37 1012.35 1012.34 1012.33 1012.31 1012.27 1012.24 1012.19 1012.14 1012.08 1012.02 1011.96 1011.90 1011.83 1011.75 1011.66 1011.55 1011.43 1011.27 1011.11 1010.93 1010.75 1010.57 1010.40 1010.25 1010.11 1010.00 1009.91 1009.83 1009.77 1009.72 1009.68 1009.66 1009.65 1009.67 1009.71 1009.78 1009.88 1010.02 1010.19 1010.40 1010.62 1010.85
1012.20 1012.18 1012.16 1012.13 1012.08 1012.02 1011.94 1011.86 1011.76 1011.67 1011.59 1011.52 1011.47 1011.44 1011.41 1011.38 1011.34 1011.29 1011.21 1011.10 1010.96 1010.80 1010.63 1010.45 1010.26 1010.09 1009.93 1009.78 1009.66 1009.55 1009.46 1009.39 1009.33 1009.29 1009.27 1009.27 1009.30 1009.36 1009.45 1009.59 1009.77 1009.98 1010.22
1011.89 1011.86 1011.82 1011.76 1011.69 1011.60 1011.49 1011.36 1011.24 1011.12 1011.02 1010.94 1010.90 1010.88 1010.89 1010.91 1010.93 1010.94 1010.92 1010.87 1010.77 1010.64 1010.49 1010.30 1010.11 1009.91 1009.72 1009.55 1009.40 1009.26 1009.15 1009.05 1008.96 1008.89 1008.83 1008.78 1008.76 1008.76 1008.80 1008.88 1009.02 1009.19 1009.41
1011.49 1011.45 1011.40 1011.33 1011.24 1011.13 1010.99 1010.85 1010.70 1010.55 1010.43 1010.35 1010.30 1010.29 1010.32 1010.36 1010.41 1010.45 1010.46 1010.44 1010.37 1010.26 1010.11 1009.93 1009.73 1009.52 1009.32 1009.14 1008.97 1008.83 1008.70 1008.59 1008.49 1008.39 1008.31 1008.22 1008.15 1008.10 1008.08 1008.10 1008.17 1008.30 1008.47
Thickness
5781 5781 5779 5778 5779 5779 5778 5777 5777 5776 5776 5776 5775 5775 5774 5773 5772 5770 5767 5762 5759 5757 5755 5754 5753 5752 5750 5749 5747 5745 5742 5740 5739 5738 5736 5735 5734 5733 5732 5731 5729 5728 5727
5781 5781 5780 5779 5780 5780 5779 5778 5778 5777 5777 5777 5776 5775 5774 5774 5771 5769 5768 5764 5761 5758 5756 5755 5754 5752 5751 5748 5746 5744 5742 5740 5739 5737 5736 5735 5734 5733 5731 5730 5728 5727 5726
5781 5781 5781 5781 5781 5780 5779 5779 5778 5779 5778 5777 5776 5775 5775 5773 5772 5770 5769 5767 5765 5760 5758 5756 5754 5753 5751 5748 5746 5744 5742 5740 5738 5737 5736 5734 5733 5731 5730 5729 5728 5726 5726
5781 5781 5781 5782 5780 5781 5781 5779 5779 5778 5777 5776 5776 5776 5775 5773 5772 5770 5770 5768 5766 5765 5760 5757 5755 5753 5751 5749 5746 5744 5742 5740 5738 5736 5735 5734 5733 5731 5730 5729 5727 5726 5725
5782 5782 5782 5780 5780 5781 5781 5780 5779 5778 5775 5775 5776 5775 5776 5775 5773 5772 5770 5768 5767 5765 5763 5758 5755 5753 5751 5749 5746 5744 5742 5740 5738 5736 5735 5733 5732 5731 5730 5729 5727 5725 5724
5781 5782 5782 5779 5781 5781 5779 5778 5775 5775 5775 5775 5777 5776 5776 5775 5775 5772 5771 5769 5767 5766 5764 5761 5757 5755 5751 5749 5746 5744 5742 5740 5738 5736 5735 5734 5732 5731 5730 5728 5727 5725 5724
5781 5780 5781 5779 5779 5779 5777 5778 5776 5776 5775 5775 5773 5772 5774 5775 5773 5771 5771 5769 5767 5765 5763 5761 5759 5757 5754 5749 5747 5744 5742 5740 5738 5736 5735 5734 5732 5731 5729 5728 5727 5725 5724
5780 5781 5778 5779 5778 5776 5775 5775 5773 5774 5775 5775 5771 5767 5765 5766 5768 5771 5769 5767 5766 5765 5763 5761 5759 5756 5754 5752 5749 5745 5742 5740 5738 5736 5735 5734 5732 5731 5730 5728 5727 5725 5723
5779 5778 5778 5778 5777 5778 5777 5774 5773 5771 5771 5773 5773 5767 5761 5758 5762 5766 5766 5765 5763 5762 5762 5761 5758 5756 5753 5752 5750 5745 5742 5740 5738 5737 5735 5733 5732 5731 5730 5728 5726 5725 5723
5779 5778 5777 5777 5776 5778 5775 5776 5775 5773 5769 5769 5770 5769 5767 5765 5758 5757 5762 5763 5762 5760 5760 5761 5759 5756 5753 5751 5748 5745 5742 5740 5738 5736 5735 5733 5732 5731 5729 5728 5726 5725 5724
5778 5778 5777 5776 5775 5775 5774 5773 5772 5771 5771 5769 5768 5767 5765 5764 5763 5756 5752 5755 5759 5761 5761 5759 5758 5756 5753 5751 5748 5745 5741 5739 5737 5736 5734 5733 5731 5730 5729 5727 5726 5724 5723
5778 5777 5776 5775 5774 5774 5773 5772 5771 5770 5768 5766 5766 5767 5764 5761 5758 5756 5752 5752 5753 5757 5759 5758 5757 5755 5753 5751 5747 5743 5740 5737 5736 5734 5733 5732 5730 5729 5728 5726 5725 5724 5722
5776 5774 5775 5773 5773 5771 5771 5770 5769 5768 5767 5764 5763 5764 5764 5762 5761 5757 5753 5752 5751 5755 5755 5756 5756 5754 5752 5749 5746 5741 5738 5736 5734 5732 5731 5730 5729 5728 5726 5725 5723 5722 5721
5776 5774 5772 5771 5770 5770 5770 5768 5768 5767 5765 5763 5762 5760 5760 5761 5761 5758 5754 5751 5747 5750 5751 5751 5753 5751 5749 5747 5743 5739 5738 5734 5732 5731 5729 5728 5727 5726 5725 5723 5722 5721 5720
5775 5772 5771 5769 5768 5767 5766 5765 5764 5763 5762 5761 5760 5758 5757 5758 5757 5756 5755 5752 5745 5740 5743 5747 5747 5748 5746 5743 5740 5738 5737 5733 5731 5729 5728 5726 5725 5724 5723 5721 5720 5719 5718
5770 5769 5768 5767 5766 5764 5763 5762 5762 5760 5758 5756 5755 5753 5752 5754 5753 5752 5751 5749 5747 5742 5739 5745 5744 5746 5743 5742 5738 5736 5734 5731 5729 5727 5726 5725 5723 5722 5720 5719 5718 5717 5716
5767 5766 5765 5764 5763 5761 5760 5758 5758 5757 5754 5753 5751 5750 5747 5747 5747 5747 5746 5745 5743 5741 5737 5740 5742 5741 5737 5735 5735 5734 5734 5732 5730 5726 5725 5723 5721 5720 5718 5717 5716 5715 5714
5765 5763 5762 5761 5760 5759 5757 5755 5753 5753 5751 5749 5747 5745 5744 5744 5741 5741 5740 5739 5738 5737 5734 5731 5733 5734 5732 5731 5730 5729 5731 5732 5730 5726 5723 5721 5719 5717 5716 5715 5714 5713 5712
5762 5760 5758 5757 5756 5755 5753 5752 5750 5749 5748 5746 5744 5741 5740 5738 5736 5736 5734 5734 5734 5734 5732 5729 5728 5729 5728 5728 5725 5725 5727 5725 5727 5725 5721 5719 5717 5715 5714 5712 5711 5710 5709
5758 5756 5755 5754 5753 5751 5750 5749 5747 5745 5743 5742 5740 5738 5736 5734 5732 5730 5730 5728 5728 5727 5726 5725 5724 5723 5722 5722 5720 5719 5720 5721 5722 5723 5720 5718 5716 5713 5711 5710 5708 5707 5706
5756 5753 5751 5750 5748 5748 5747 5745 5743 5742 5739 5737 5736 5734 5732 5729 5726 5725 5726 5725 5723 5721 5721 5720 5719 5718 5716 5713 5712 5715 5715 5715 5716 5718 5717 5717 5715 5714 5711 5708 5705 5703 5702
5751 5749 5747 5745 5743 5743 5739 5737 5736 5736 5734 5732 5730 5729 5728 5725 5722 5718 5716 5715 5715 5715 5715 5713 5713 5711 5709 5709 5709 5708 5708 5708 5706 5712 5709 5710 5712 5711 5711 5709 5704 5700 5698
5747 5745 5743 5741 5739 5736 5733 5730 5728 5729 5728 5726 5724 5722 5723 5723 5719 5717 5714 5710 5709 5707 5705 5706 5707 5706 5705 5705 5702 5702 5700 5700 5700 5704 5701 5702 5705 5705 5706 5704 5699 5695 5693
5743 5740 5739 5737 5735 5732 5727 5724 5722 5723 5723 5720 5719 5717 5715 5714 5713 5710 5710 5710 5708 5707 5703 5701 5701 5701 5701 5699 5697 5696 5694 5693 5694 5696 5695 5694 5698 5698 5701 5698 5692 5690 5688
5738 5736 5735 5732 5729 5726 5721 5718 5714 5718 5717 5715 5714 5711 5709 5707 5703 5700 5701 5701 5701 5701 5699 5696 5694 5693 5691 5689 5689 5689 5689 5688 5688 5690 5691 5689 5691 5691 5692 5692 5688 5684 5682
5732 5731 5729 5726 5724 5721 5715 5712 5708 5713 5712 5711 5709 5707 5701 5699 5696 5692 5694 5694 5693 5694 5694 5693 5688 5687 5686 5685 5681 5680 5682 5682 5683 5683 5686 5682 5684 5682 5681 5685 5684 5680 5677